period_start,C,m1,H,J0,J1,J2,J3,J4,J5,JA,JB,JC,JD,JJ,JK,JN,#
2017-01-30 00:00:45,0.26,0.88,0.00,21.57,25.17,28.85,14.42,48.77,1005.20,2038.00,3227.72,2850.39,3254.23,599.84,592.04,3.58,0000 0000 0000 0000 000000
2017-01-30 00:05:46,0.25,0.89,0.00,21.55,25.18,28.81,14.39,48.52,1005.10,2037.99,3222.66,2846.71,3250.00,600.12,592.23,3.63,0000 0000 0000 0000 000000
2017-01-30 00:10:47,0.26,0.91,0.00,21.57,25.20,28.82,14.47,48.54,1005.19,2037.99,3217.66,2843.05,3245.75,599.79,591.90,3.68,0000 0000 0000 0000 000000
2017-01-30 00:15:49,0.25,0.92,0.00,21.59,25.20,28.81,14.43,48.63,1005.27,2037.99,3212.73,2839.50,3241.62,600.09,592.35,3.73,0000 0000 0000 0000 000000
2017-01-30 00:20:50,0.26,0.93,0.00,21.58,25.20,28.86,14.49,48.73,1005.11,2037.98,3207.74,2835.88,3237.41,600.28,592.36,3.78,0000 0000 0000 0000 000000
2017-01-30 00:25:51,0.26,0.94,0.00,21.58,25.20,28.80,14.43,48.54,1005.05,2037.98,3202.73,2832.19,3233.17,599.85,591.85,3.83,0000 0000 0000 0000 000000
2017-01-30 00:30:53,0.25,0.96,0.00,21.58,25.22,28.84,14.43,48.48,1005.03,2037.96,3197.79,2828.59,3228.91,600.31,592.31,3.88,0000 0000 0000 0000 000000
2017-01-30 00:35:54,0.25,0.97,0.00,21.58,25.22,28.82,14.54,48.61,1004.97,2037.95,3192.92,2825.04,3224.81,600.22,592.28,3.93,0000 0000 0000 0000 000000
2017-01-30 00:40:55,0.25,0.98,0.00,21.59,25.22,28.83,14.45,48.67,1004.99,2037.94,3188.07,2821.50,3220.65,600.06,591.96,3.98,0000 0000 0000 0000 000000
2017-01-30 00:45:57,0.26,1.00,0.00,21.61,25.22,28.84,14.49,48.67,1004.95,2037.93,3183.15,2817.95,3216.52,599.80,591.72,4.03,0000 0000 0000 0000 000000
2017-01-30 00:50:58,0.24,1.01,0.00,21.60,25.24,28.89,14.48,48.60,1004.92,2037.88,3178.30,2814.49,3212.40,600.30,592.30,4.08,0000 0000 0000 0000 000000
2017-01-30 00:55:59,0.25,1.02,0.00,21.61,25.25,28.86,14.45,48.65,1004.90,2037.83,3173.48,2811.05,3208.36,599.74,591.74,4.14,0000 0000 0000 0000 000000
2017-01-30 01:01:00,0.23,1.03,0.00,21.61,25.25,28.88,14.44,48.59,1004.91,2037.57,3168.62,2807.48,3204.24,600.10,591.96,4.19,0000 0000 0000 0000 000000
2017-01-30 01:06:02,0.23,1.05,0.00,21.63,25.25,28.84,14.39,48.30,1005.19,2037.44,3163.82,2804.03,3200.21,600.08,592.14,4.24,0000 0000 0000 0000 000000
2017-01-30 01:11:03,0.24,1.06,0.00,21.63,25.25,28.85,14.39,48.33,1005.39,2037.22,3158.95,2800.48,3196.18,599.75,591.94,4.29,0000 0000 0000 0000 000000
2017-01-30 01:16:04,0.28,1.07,0.00,21.63,25.25,28.86,14.49,48.40,1005.40,2037.21,3153.76,2796.80,3191.90,600.44,592.62,4.34,0000 0000 0000 0000 000000
2017-01-30 01:21:06,0.77,1.09,0.00,21.67,25.26,28.87,14.47,48.49,1005.38,2037.16,3142.32,2789.26,3183.40,600.37,592.46,4.39,0000 0000 0000 0000 000000
2017-01-30 01:26:07,0.46,1.13,0.00,21.66,25.27,28.90,14.45,48.48,1005.39,2037.03,3129.33,2780.36,3173.45,599.95,592.13,4.44,0000 0000 0000 0000 000000
2017-01-30 01:31:08,0.26,1.15,0.00,21.68,25.27,28.94,14.41,48.40,1005.39,2037.04,3124.31,2776.68,3169.24,599.90,591.98,4.49,0000 0000 0000 0000 000000
2017-01-30 01:36:09,0.25,1.16,0.00,21.70,25.28,28.94,14.47,48.38,1005.39,2037.03,3119.60,2773.19,3165.19,599.88,591.94,4.54,0000 0000 0000 0000 000000
2017-01-30 01:41:11,0.26,1.17,0.00,21.70,25.30,28.95,14.47,48.28,1005.39,2037.03,3114.85,2769.78,3161.16,600.00,592.01,4.59,0000 0000 0000 0000 000000
2017-01-30 01:46:12,0.26,1.19,0.00,21.69,25.30,28.97,14.44,48.23,1005.39,2037.02,3110.04,2766.24,3157.04,600.07,592.16,4.64,0000 0000 0000 0000 000000
2017-01-30 01:51:13,0.26,1.20,0.00,21.72,25.31,29.00,14.42,48.41,1005.39,2037.00,3105.23,2762.76,3153.00,600.01,592.02,4.69,0000 0000 0000 0000 000000
2017-01-30 01:56:15,0.26,1.21,0.00,21.75,25.32,29.02,14.45,48.38,1005.38,2037.00,3100.46,2759.25,3148.99,599.75,591.79,4.74,0000 0000 0000 0000 000000
2017-01-30 02:01:16,0.26,1.22,0.00,21.77,25.33,29.03,14.44,48.44,1005.37,2037.00,3095.69,2755.78,3144.89,599.94,591.82,4.79,0000 0000 0000 0000 000000
2017-01-30 02:06:17,0.26,1.24,0.00,21.79,25.35,29.04,14.43,48.36,1005.35,2036.99,3090.93,2752.30,3140.77,600.05,591.97,4.84,0000 0000 0000 0000 000000
2017-01-30 02:11:19,0.24,1.25,0.00,21.79,25.35,29.05,14.48,48.43,1005.38,2036.99,3086.33,2748.94,3136.82,599.89,591.75,4.89,0000 0000 0000 0000 000000
2017-01-30 02:16:20,0.25,1.26,0.00,21.82,25.37,29.02,14.46,48.47,1005.39,2036.98,3081.72,2745.67,3133.12,600.10,591.91,4.94,0000 0000 0000 0000 000000
2017-01-30 02:21:21,0.25,1.28,0.00,21.81,25.37,29.06,14.43,48.43,1005.39,2036.98,3077.07,2742.25,3129.24,600.10,591.92,4.99,0000 0000 0000 0000 000000
2017-01-30 02:26:22,0.25,1.29,0.00,21.84,25.39,29.07,14.41,48.33,1005.39,2036.98,3072.58,2738.96,3125.39,599.81,591.62,5.04,0000 0000 0000 0000 000000
2017-01-30 02:31:23,0.25,1.30,0.00,21.86,25.40,29.11,14.39,48.34,1005.39,2036.98,3068.10,2735.67,3121.51,599.90,591.66,5.09,0000 0000 0000 0000 000000
2017-01-30 02:36:25,0.25,1.31,0.00,21.87,25.41,29.11,14.44,48.42,1005.39,2036.97,3063.62,2732.36,3117.71,600.13,591.87,5.14,0000 0000 0000 0000 000000
2017-01-30 02:41:26,0.24,1.33,0.00,21.88,25.42,29.15,14.41,48.37,1005.39,2036.93,3059.07,2729.07,3113.86,600.14,591.65,5.19,0000 0000 0000 0000 000000
2017-01-30 02:46:27,0.23,1.34,0.00,21.90,25.43,29.14,14.47,48.55,1005.38,2036.86,3054.64,2725.84,3110.12,599.98,591.54,5.24,0000 0000 0000 0000 000000
2017-01-30 02:51:28,0.25,1.35,0.00,21.92,25.45,29.18,14.42,48.37,1005.38,2036.74,3050.10,2722.50,3106.30,599.83,591.44,5.29,0000 0000 0000 0000 000000
2017-01-30 02:56:29,0.22,1.36,0.00,21.92,25.46,29.21,14.50,48.42,1005.32,2036.36,3045.52,2719.05,3102.33,600.17,591.73,5.34,0000 0000 0000 0000 000000
2017-01-30 03:01:31,0.22,1.37,0.00,21.95,25.47,29.18,14.49,48.50,1005.33,2036.14,3041.06,2715.82,3098.56,599.90,591.31,5.39,0000 0000 0000 0000 000000
2017-01-30 03:06:32,0.24,1.39,0.00,21.94,25.49,29.20,14.46,48.58,1005.35,2036.06,3036.58,2712.60,3094.85,600.01,591.64,5.44,0000 0000 0000 0000 000000
2017-01-30 03:11:33,0.24,1.40,0.00,21.97,25.50,29.24,14.38,48.33,1005.38,2036.04,3032.18,2709.37,3091.11,600.03,591.54,5.49,0000 0000 0000 0000 000000
2017-01-30 03:16:34,0.25,1.41,0.00,21.96,25.52,29.24,14.42,48.44,1005.35,2036.01,3027.75,2706.11,3087.39,599.91,591.43,5.54,0000 0000 0000 0000 000000
2017-01-30 03:21:35,0.25,1.42,0.00,21.97,25.52,29.24,14.49,48.51,1005.35,2036.01,3023.37,2702.82,3083.57,600.10,591.55,5.59,0000 0000 0000 0000 000000
2017-01-30 03:26:36,0.24,1.44,0.00,21.98,25.55,29.27,14.43,48.38,1005.35,2036.00,3018.99,2699.61,3079.85,600.03,591.52,5.64,0000 0000 0000 0000 000000
2017-01-30 03:31:38,0.25,1.45,0.00,21.99,25.55,29.27,14.37,48.37,1005.34,2036.00,3014.66,2696.43,3076.17,599.60,591.04,5.69,0000 0000 0000 0000 000000
2017-01-30 03:36:39,0.23,1.46,0.00,22.00,25.57,29.27,14.42,48.46,1005.32,2036.00,3010.43,2693.36,3072.59,600.15,591.50,5.74,0000 0000 0000 0000 000000
2017-01-30 03:41:40,0.24,1.47,0.00,22.01,25.58,29.32,14.48,48.41,1005.30,2036.00,3006.31,2690.26,3069.07,600.22,591.75,5.79,0000 0000 0000 0000 000000
2017-01-30 03:46:42,0.23,1.49,0.00,22.04,25.60,29.32,14.42,48.42,1005.34,2035.99,3002.12,2687.18,3065.45,600.21,591.57,5.84,0000 0000 0000 0000 000000
2017-01-30 03:51:43,0.24,1.50,0.00,22.05,25.61,29.33,14.41,48.39,1005.28,2035.99,2997.85,2684.10,3061.84,600.32,591.61,5.89,0000 0000 0000 0000 000000
2017-01-30 03:56:44,0.24,1.51,0.00,22.06,25.62,29.33,14.49,48.47,1005.36,2035.97,2993.61,2680.97,3058.16,600.30,591.61,5.94,0000 0000 0000 0000 000000
2017-01-30 04:01:46,0.24,1.52,0.00,22.09,25.63,29.35,14.44,48.38,1005.34,2035.97,2989.41,2677.88,3054.61,600.02,591.14,5.99,0000 0000 0000 0000 000000
2017-01-30 04:06:47,0.23,1.53,0.00,22.10,25.65,29.37,14.40,48.31,1005.33,2035.90,2985.11,2674.72,3050.94,599.81,590.94,6.04,0000 0000 0000 0000 000000
2017-01-30 04:11:48,0.22,1.55,0.00,22.12,25.66,29.37,14.40,48.41,1005.34,2035.75,2980.88,2671.64,3047.33,600.10,591.30,6.09,0000 0000 0000 0000 000000
2017-01-30 04:16:50,0.19,1.56,0.00,22.13,25.67,29.39,14.45,48.50,1005.28,2035.21,2976.70,2668.56,3043.73,600.14,591.26,6.14,0000 0000 0000 0000 000000
2017-01-30 04:21:51,0.23,1.57,0.00,22.17,25.68,29.45,14.46,48.38,1005.35,2035.08,2972.53,2665.57,3040.28,599.92,591.08,6.19,0000 0000 0000 0000 000000
2017-01-30 04:26:52,0.23,1.58,0.00,22.16,25.70,29.42,14.40,48.38,1005.36,2035.02,2968.38,2662.60,3036.78,599.77,590.99,6.24,0000 0000 0000 0000 000000
2017-01-30 04:31:53,0.23,1.59,0.00,22.18,25.71,29.44,14.38,48.39,1005.38,2035.02,2964.34,2659.60,3033.26,600.20,591.24,6.29,0000 0000 0000 0000 000000
2017-01-30 04:36:55,0.23,1.60,0.00,22.19,25.72,29.45,14.42,48.38,1005.37,2035.00,2960.32,2656.69,3029.87,599.88,590.95,6.34,0000 0000 0000 0000 000000
2017-01-30 04:41:56,0.24,1.62,0.00,22.20,25.73,29.44,14.41,48.41,1005.39,2035.00,2956.18,2653.63,3026.36,600.20,591.10,6.39,0000 0000 0000 0000 000000
2017-01-30 04:46:57,0.24,1.63,0.00,22.21,25.75,29.44,14.48,48.42,1005.37,2035.00,2952.07,2650.55,3022.87,600.07,591.02,6.44,0000 0000 0000 0000 000000
2017-01-30 04:51:59,0.23,1.64,0.00,22.24,25.76,29.46,14.51,48.43,1005.39,2035.00,2948.02,2647.58,3019.34,600.33,591.29,6.50,0000 0000 0000 0000 000000
2017-01-30 04:57:00,0.23,1.65,0.00,22.23,25.77,29.51,14.40,48.45,1005.39,2035.00,2944.06,2644.67,3015.99,599.99,590.98,6.55,0000 0000 0000 0000 000000
2017-01-30 05:02:01,0.23,1.66,0.00,22.27,25.79,29.49,14.46,48.47,1005.39,2034.99,2940.06,2641.74,3012.57,600.35,591.25,6.60,0000 0000 0000 0000 000000
2017-01-30 05:07:02,0.24,1.68,0.00,22.30,25.80,29.51,14.45,48.43,1005.39,2034.98,2935.99,2638.72,3009.08,599.92,590.81,6.65,0000 0000 0000 0000 000000
2017-01-30 05:12:03,0.22,1.69,0.00,22.29,25.81,29.58,14.42,48.51,1005.38,2034.94,2931.99,2635.78,3005.85,600.13,591.00,6.70,0000 0000 0000 0000 000000
2017-01-30 05:17:05,0.23,1.70,0.00,22.30,25.82,29.58,14.47,48.64,1005.37,2034.91,2928.00,2632.84,3002.47,599.87,590.68,6.75,0000 0000 0000 0000 000000
2017-01-30 05:22:06,0.23,1.71,0.00,22.29,25.84,29.58,14.42,48.38,1005.36,2034.83,2923.98,2629.86,2999.08,599.67,590.50,6.80,0000 0000 0000 0000 000000
2017-01-30 05:27:07,0.21,1.72,0.00,22.30,25.85,29.54,14.36,48.42,1005.37,2034.65,2919.99,2626.92,2995.69,600.24,590.98,6.85,0000 0000 0000 0000 000000
2017-01-30 05:32:09,0.23,1.73,0.00,22.32,25.87,29.57,14.40,48.37,1005.38,2034.62,2916.07,2624.11,2992.35,600.13,590.97,6.90,0000 0000 0000 0000 000000
2017-01-30 05:37:10,0.20,1.74,0.00,22.33,25.87,29.63,14.45,48.58,1005.37,2034.36,2912.10,2621.35,2989.04,599.78,590.56,6.95,0000 0000 0000 0000 000000
2017-01-30 05:42:11,0.23,1.76,0.00,22.36,25.90,29.64,14.35,48.48,1005.35,2034.05,2907.98,2618.31,2985.50,599.87,590.65,7.00,0000 0000 0000 0000 000000
2017-01-30 05:47:13,0.24,1.77,0.00,22.35,25.90,29.64,14.46,48.63,1005.38,2034.03,2903.95,2615.41,2982.11,599.84,590.57,7.05,0000 0000 0000 0000 000000
2017-01-30 05:52:14,0.23,1.78,0.00,22.36,25.92,29.65,14.45,48.56,1005.36,2034.00,2899.93,2612.44,2978.68,600.29,590.99,7.10,0000 0000 0000 0000 000000
2017-01-30 05:57:15,0.24,1.79,0.00,22.37,25.92,29.64,14.39,48.51,1005.36,2034.00,2895.99,2609.49,2975.36,599.81,590.44,7.15,0000 0000 0000 0000 000000
2017-01-30 06:02:17,0.22,1.80,0.00,22.33,25.95,29.64,14.46,48.53,1005.38,2034.00,2892.10,2606.72,2972.09,600.08,590.78,7.20,0000 0000 0000 0000 000000
2017-01-30 06:07:18,0.23,1.81,0.00,22.28,25.95,29.65,14.52,48.61,1005.39,2034.00,2888.16,2603.82,2968.76,600.24,591.13,7.25,0000 0000 0000 0000 000000
2017-01-30 06:12:19,0.23,1.83,0.00,22.29,25.96,29.67,14.40,48.55,1005.39,2034.00,2884.23,2601.05,2965.43,599.91,590.78,7.30,0000 0000 0000 0000 000000
2017-01-30 06:17:20,0.25,1.84,0.00,22.32,25.97,29.67,14.38,48.30,1005.39,2033.99,2880.12,2598.01,2961.81,599.71,590.58,7.35,0000 0000 0000 0000 000000
2017-01-30 06:22:21,0.24,1.85,0.00,22.33,25.98,29.64,14.45,48.42,1005.38,2033.99,2876.30,2595.07,2958.43,599.96,590.75,7.40,0000 0000 0000 0000 000000
2017-01-30 06:27:23,0.23,1.86,0.00,22.34,26.00,29.64,14.41,48.52,1005.33,2033.99,2872.42,2592.18,2955.11,600.11,590.85,7.45,0000 0000 0000 0000 000000
2017-01-30 06:32:24,0.25,1.88,0.00,22.33,26.00,29.66,14.48,48.60,1005.07,2033.98,2868.43,2589.23,2951.72,600.10,590.70,7.50,0000 0000 0000 0000 000000
2017-01-30 06:37:25,0.24,1.89,0.00,22.40,26.00,29.67,14.35,48.60,1004.98,2033.98,2864.46,2586.27,2948.25,599.70,590.26,7.55,0000 0000 0000 0000 000000
2017-01-30 06:42:26,0.23,1.90,0.00,22.39,26.02,29.67,14.41,48.58,1005.05,2033.95,2860.55,2583.30,2944.89,600.23,590.59,7.60,0000 0000 0000 0000 000000
2017-01-30 06:47:28,0.23,1.91,0.00,22.41,26.02,29.69,14.35,48.64,1005.11,2033.92,2856.69,2580.46,2941.70,599.85,590.32,7.65,0000 0000 0000 0000 000000
2017-01-30 06:52:29,0.22,1.92,0.00,22.47,26.02,29.63,14.39,48.59,1005.18,2033.90,2852.96,2577.69,2938.58,599.82,590.21,7.70,0000 0000 0000 0000 000000
2017-01-30 06:57:31,0.22,1.94,0.00,22.46,26.05,29.65,14.43,48.55,1005.32,2033.87,2849.22,2574.95,2935.38,599.90,590.45,7.75,0000 0000 0000 0000 000000
2017-01-30 07:02:32,0.23,1.95,0.00,22.44,26.05,29.68,14.30,48.57,1005.36,2033.67,2845.29,2572.09,2932.01,599.47,590.06,7.80,0000 0000 0000 0000 000000
2017-01-30 07:07:33,0.19,1.96,0.00,22.50,26.05,29.66,14.39,48.43,1005.39,2033.40,2841.46,2569.25,2928.74,599.91,590.40,7.85,0000 0000 0000 0000 000000
2017-01-30 07:12:35,0.22,1.97,0.00,22.56,26.07,29.70,14.44,48.43,1005.39,2033.20,2837.68,2566.47,2925.48,600.40,590.73,7.90,0000 0000 0000 0000 000000
2017-01-30 07:17:36,0.22,1.98,0.00,22.54,26.07,29.72,14.39,48.37,1005.39,2033.11,2833.90,2563.73,2922.29,600.03,590.38,7.95,0000 0000 0000 0000 000000
2017-01-30 07:22:37,0.23,1.99,0.00,22.51,26.07,29.71,14.35,48.41,1005.39,2033.07,2830.12,2560.95,2919.08,599.97,590.38,8.00,0000 0000 0000 0000 000000
2017-01-30 07:27:39,0.22,2.00,0.00,22.53,26.09,29.73,14.44,48.53,1005.39,2033.03,2826.36,2558.31,2915.87,600.02,590.40,8.05,0000 0000 0000 0000 000000
2017-01-30 07:32:40,0.22,2.01,0.00,22.55,26.10,29.71,14.40,48.57,1005.39,2033.02,2822.69,2555.65,2912.71,599.85,590.22,8.10,0000 0000 0000 0000 000000
2017-01-30 07:37:41,0.23,2.02,0.00,22.56,26.10,29.76,14.36,48.54,1005.39,2033.00,2818.99,2552.91,2909.49,599.94,590.16,8.15,0000 0000 0000 0000 000000
2017-01-30 07:42:43,0.22,2.04,0.00,22.55,26.11,29.76,14.43,48.48,1005.39,2033.00,2815.36,2550.22,2906.34,600.19,590.57,8.20,0000 0000 0000 0000 000000
2017-01-30 07:47:44,0.23,2.05,0.00,22.58,26.12,29.78,14.49,48.56,1005.39,2033.00,2811.76,2547.49,2903.22,600.44,590.68,8.25,0000 0000 0000 0000 000000
2017-01-30 07:52:45,0.23,2.06,0.00,22.59,26.13,29.82,14.47,48.63,1005.39,2033.00,2808.08,2544.85,2900.11,600.31,590.50,8.30,0000 0000 0000 0000 000000
2017-01-30 07:57:46,0.24,2.07,0.00,22.58,26.15,29.81,14.33,48.61,1005.39,2033.00,2804.34,2542.09,2896.90,599.80,589.99,8.35,0000 0000 0000 0000 000000
2017-01-30 08:02:48,0.25,2.09,0.00,22.56,26.15,29.84,14.38,48.83,1005.39,2033.00,2800.45,2539.21,2893.62,600.08,590.42,8.40,0000 0000 0000 0000 000000
2017-01-30 08:07:49,0.24,2.10,0.00,22.59,26.16,29.84,14.39,48.48,1005.39,2032.98,2796.48,2536.25,2890.13,600.11,590.35,8.45,0000 0000 0000 0000 000000
2017-01-30 08:12:50,0.24,2.11,0.00,22.61,26.17,29.86,14.41,48.53,1005.39,2032.97,2792.75,2533.42,2886.81,599.82,589.99,8.50,0000 0000 0000 0000 000000
2017-01-30 08:17:52,0.23,2.12,0.00,22.59,26.17,29.85,14.39,48.50,1005.39,2032.96,2789.08,2530.66,2883.61,599.97,590.16,8.55,0000 0000 0000 0000 000000
2017-01-30 08:22:53,0.22,2.13,0.00,22.60,26.20,29.86,14.43,48.57,1005.39,2032.93,2785.46,2528.07,2880.55,600.01,590.26,8.60,0000 0000 0000 0000 000000
2017-01-30 08:27:54,0.21,2.15,0.00,22.60,26.20,29.87,14.39,48.52,1005.39,2032.81,2781.83,2525.36,2877.61,600.06,590.39,8.65,0000 0000 0000 0000 000000
2017-01-30 08:32:55,0.20,2.16,0.00,22.60,26.20,29.90,14.36,48.50,1005.40,2032.53,2778.25,2522.65,2874.55,599.97,590.23,8.70,0000 0000 0000 0000 000000
2017-01-30 08:37:57,0.22,2.17,0.00,22.60,26.22,29.92,14.35,48.53,1005.40,2032.39,2774.75,2520.01,2871.50,599.57,590.01,8.75,0000 0000 0000 0000 000000
2017-01-30 08:42:58,0.21,2.18,0.00,22.60,26.22,29.88,14.42,48.44,1005.40,2032.19,2771.06,2517.30,2868.28,599.98,590.17,8.81,0000 0000 0000 0000 000000
2017-01-30 08:47:59,0.21,2.19,0.00,22.62,26.23,29.91,14.43,48.47,1005.44,2032.07,2767.49,2514.71,2865.26,600.07,590.38,8.86,0000 0000 0000 0000 000000
2017-01-30 08:53:01,0.23,2.20,0.00,22.62,26.25,29.92,14.36,48.49,1005.44,2032.03,2763.89,2512.12,2862.19,599.94,590.13,8.91,0000 0000 0000 0000 000000
2017-01-30 08:58:02,0.22,2.21,0.00,22.61,26.25,29.97,14.40,48.44,1005.48,2032.01,2760.35,2509.47,2859.20,600.16,590.37,8.96,0000 0000 0000 0000 000000
2017-01-30 09:03:03,0.24,2.22,0.00,22.61,26.26,29.96,14.43,48.55,1005.58,2032.00,2756.66,2506.75,2856.00,600.12,590.47,9.01,0000 0000 0000 0000 000000
2017-01-30 09:08:04,0.23,2.23,0.00,22.66,26.27,29.97,14.37,48.49,1005.75,2032.00,2753.08,2504.10,2852.94,600.01,590.34,9.06,0000 0000 0000 0000 000000
2017-01-30 09:13:05,0.22,2.25,0.00,22.64,26.27,29.96,14.38,48.48,1005.78,2032.00,2749.71,2501.48,2849.93,600.12,590.69,9.11,0000 0000 0000 0000 000000
2017-01-30 09:18:07,0.21,2.26,0.00,22.62,26.28,29.96,14.40,48.49,1005.84,2032.00,2746.25,2498.96,2846.98,600.07,590.50,9.16,0000 0000 0000 0000 000000
2017-01-30 09:23:08,0.23,2.27,0.00,22.62,26.30,29.94,14.38,48.49,1005.84,2032.00,2742.73,2496.39,2843.99,599.93,590.49,9.21,0000 0000 0000 0000 000000
2017-01-30 09:28:09,0.22,2.28,0.00,22.64,26.30,29.96,14.42,48.52,1005.85,2032.00,2739.23,2493.99,2840.98,600.32,590.73,9.26,0000 0000 0000 0000 000000
2017-01-30 09:33:11,0.23,2.29,0.00,22.61,26.30,29.97,14.42,48.53,1005.87,2031.99,2735.76,2491.40,2837.95,600.00,590.58,9.31,0000 0000 0000 0000 000000
2017-01-30 09:38:12,0.22,2.30,0.00,22.61,26.30,29.94,14.42,48.48,1005.87,2031.99,2732.21,2488.80,2834.88,600.03,590.55,9.36,0000 0000 0000 0000 000000
2017-01-30 09:43:13,0.22,2.31,0.00,22.62,26.32,29.94,14.37,48.45,1005.87,2031.98,2728.79,2486.25,2831.93,599.93,590.43,9.41,0000 0000 0000 0000 000000
2017-01-30 09:48:14,0.22,2.33,0.00,22.65,26.32,29.96,14.34,48.43,1005.88,2031.97,2725.27,2483.69,2828.96,599.60,590.03,9.46,0000 0000 0000 0000 000000
2017-01-30 09:53:16,0.23,2.34,0.00,22.63,26.32,29.96,14.50,48.42,1005.88,2031.94,2721.79,2481.11,2825.97,600.35,590.85,9.51,0000 0000 0000 0000 000000
2017-01-30 09:58:17,0.21,2.35,0.00,22.62,26.32,29.93,14.42,48.33,1005.88,2031.92,2718.31,2478.60,2823.09,600.23,590.68,9.56,0000 0000 0000 0000 000000
2017-01-30 10:03:18,0.23,2.36,0.00,22.63,26.32,29.96,14.32,48.37,1005.88,2031.89,2714.76,2475.99,2820.11,599.68,590.13,9.61,0000 0000 0000 0000 000000
2017-01-30 10:08:19,0.21,2.37,0.00,22.66,26.33,29.95,14.44,48.38,1005.88,2031.90,2711.39,2473.54,2817.24,600.28,590.67,9.66,0000 0000 0000 0000 000000
2017-01-30 10:13:21,0.20,2.38,0.00,22.64,26.34,29.96,14.34,48.37,1005.90,2031.90,2708.05,2471.28,2814.70,599.67,590.14,9.71,0000 0000 0000 0000 000000
2017-01-30 10:18:22,0.21,2.39,0.00,22.60,26.35,29.95,14.51,48.47,1005.89,2031.81,2704.61,2468.79,2811.92,600.35,590.86,9.76,0000 0000 0000 0000 000000
2017-01-30 10:23:23,0.22,2.40,0.00,22.63,26.35,29.96,14.39,48.50,1005.89,2031.75,2701.18,2466.33,2809.07,600.26,590.70,9.81,0000 0000 0000 0000 000000
2017-01-30 10:28:25,0.22,2.41,0.00,22.62,26.35,29.98,14.40,48.42,1005.88,2031.68,2697.76,2463.82,2806.17,599.98,590.37,9.86,0000 0000 0000 0000 000000
2017-01-30 10:33:26,0.20,2.43,0.00,22.63,26.35,29.97,14.34,48.46,1005.87,2031.61,2694.38,2461.40,2803.36,599.64,590.26,9.91,0000 0000 0000 0000 000000
2017-01-30 10:38:27,0.20,2.44,0.00,22.61,26.35,29.94,14.41,48.52,1005.87,2031.44,2690.96,2458.85,2800.43,600.06,590.57,9.96,0000 0000 0000 0000 000000
2017-01-30 10:43:28,0.22,2.45,0.00,22.61,26.35,29.96,14.51,48.53,1005.87,2031.38,2687.63,2456.36,2797.52,600.37,590.82,10.01,0000 0000 0000 0000 000000
2017-01-30 10:48:30,0.22,2.46,0.00,22.63,26.35,29.96,14.53,48.48,1005.87,2031.29,2684.36,2453.86,2794.67,600.13,590.60,10.06,0000 0000 0000 0000 000000
2017-01-30 10:53:31,0.22,2.47,0.00,22.61,26.36,29.96,14.48,48.39,1005.87,2031.27,2680.97,2451.37,2791.75,600.19,590.68,10.11,0000 0000 0000 0000 000000
2017-01-30 10:58:32,0.21,2.48,0.00,22.59,26.36,29.99,14.42,48.38,1005.87,2031.08,2677.59,2448.87,2788.79,599.98,590.63,10.16,0000 0000 0000 0000 000000
2017-01-30 11:03:34,0.21,2.49,0.00,22.61,26.36,29.96,14.45,48.46,1005.88,2031.04,2674.25,2446.37,2785.92,600.22,590.66,10.21,0000 0000 0000 0000 000000
2017-01-30 11:08:35,0.23,2.50,0.00,22.62,26.37,29.96,14.37,48.40,1005.87,2031.08,2670.99,2444.00,2783.17,599.77,590.27,10.26,0000 0000 0000 0000 000000
2017-01-30 11:13:37,0.21,2.51,0.00,22.61,26.36,29.96,14.31,48.41,1005.88,2031.03,2667.75,2441.62,2780.34,599.70,590.23,10.31,0000 0000 0000 0000 000000
2017-01-30 11:18:38,0.24,2.52,0.00,22.59,26.35,29.94,14.48,48.46,1005.88,2031.02,2664.16,2439.07,2777.36,600.19,590.75,10.36,0000 0000 0000 0000 000000
2017-01-30 11:23:40,0.35,2.54,0.00,22.59,26.35,29.94,14.31,48.35,1005.87,2031.02,2659.13,2435.56,2773.36,599.73,590.28,10.41,0000 0000 0000 0000 000000
2017-01-30 11:28:41,0.36,2.56,0.00,22.62,26.35,29.93,14.43,48.35,1005.88,2031.01,2653.33,2431.66,2768.87,600.19,590.73,10.46,0000 0000 0000 0000 000000
2017-01-30 11:33:43,0.38,2.58,0.00,22.60,26.35,29.93,14.35,48.33,1005.90,2031.01,2647.43,2427.57,2764.21,599.86,590.42,10.51,0000 0000 0000 0000 000000
2017-01-30 11:38:44,0.33,2.60,0.00,22.58,26.35,29.95,14.49,48.49,1005.89,2031.01,2642.15,2423.91,2760.07,600.01,590.48,10.56,0000 0000 0000 0000 000000
2017-01-30 11:43:46,0.33,2.61,0.00,22.59,26.35,29.94,14.52,48.51,1005.89,2031.00,2637.19,2420.36,2756.13,600.49,591.22,10.61,0000 0000 0000 0000 000000
2017-01-30 11:48:47,0.31,2.63,0.00,22.57,26.35,29.91,14.34,48.47,1005.90,2031.01,2632.38,2416.98,2752.35,599.73,590.37,10.66,0000 0000 0000 0000 000000
2017-01-30 11:53:48,0.30,2.65,0.00,22.56,26.35,29.94,14.43,48.59,1005.89,2031.00,2627.70,2413.70,2748.77,600.00,590.57,10.71,0000 0000 0000 0000 000000
2017-01-30 11:58:49,0.27,2.66,0.00,22.57,26.35,29.91,14.40,48.53,1005.91,2031.00,2623.55,2410.69,2745.32,600.03,590.62,10.76,0000 0000 0000 0000 000000
2017-01-30 12:03:51,0.25,2.67,0.00,22.60,26.35,29.92,14.42,48.59,1005.95,2031.00,2619.96,2408.04,2742.19,600.03,590.57,10.81,0000 0000 0000 0000 000000
2017-01-30 12:08:52,0.23,2.69,0.00,22.58,26.35,29.93,14.40,48.58,1005.95,2031.00,2616.60,2405.52,2739.35,599.86,590.47,10.86,0000 0000 0000 0000 000000
2017-01-30 12:13:54,0.25,2.70,0.00,22.57,26.35,29.95,14.40,48.64,1005.89,2031.00,2612.95,2402.92,2736.28,600.05,590.72,10.92,0000 0000 0000 0000 000000
2017-01-30 12:18:55,0.26,2.71,0.00,22.56,26.35,29.92,14.46,48.69,1005.89,2031.00,2609.14,2400.19,2733.15,600.31,590.89,10.97,0000 0000 0000 0000 000000
2017-01-30 12:23:56,0.28,2.73,0.00,22.58,26.35,29.94,14.42,48.63,1005.88,2031.00,2605.00,2397.28,2729.77,599.90,590.53,11.02,0000 0000 0000 0000 000000
2017-01-30 12:28:57,0.28,2.74,0.00,22.56,26.35,29.95,14.41,48.57,1005.87,2031.00,2600.89,2394.34,2726.38,600.08,590.68,11.07,0000 0000 0000 0000 000000
2017-01-30 12:33:58,0.27,2.75,0.00,22.56,26.35,29.96,14.38,48.63,1005.87,2031.00,2596.86,2391.47,2723.07,599.94,590.61,11.12,0000 0000 0000 0000 000000
2017-01-30 12:39:00,0.28,2.77,0.00,22.56,26.35,29.93,14.43,48.67,1005.87,2031.00,2592.86,2388.59,2719.86,600.09,590.73,11.17,0000 0000 0000 0000 000000
2017-01-30 12:44:01,0.27,2.78,0.00,22.57,26.35,29.93,14.42,48.61,1005.87,2031.00,2588.83,2385.70,2716.49,600.02,590.76,11.22,0000 0000 0000 0000 000000
2017-01-30 12:49:02,0.28,2.79,0.00,22.53,26.35,29.94,14.44,48.73,1005.87,2031.00,2584.72,2382.76,2713.12,600.10,590.70,11.27,0000 0000 0000 0000 000000
2017-01-30 12:54:03,0.28,2.81,0.00,22.50,26.35,29.92,14.39,48.65,1005.87,2031.00,2580.57,2379.79,2709.79,600.02,590.81,11.32,0000 0000 0000 0000 000000
2017-01-30 12:59:05,0.28,2.82,0.00,22.53,26.35,29.93,14.43,48.69,1005.87,2031.00,2576.44,2376.87,2706.43,600.10,590.85,11.37,0000 0000 0000 0000 000000